This demonstration page uses our WeatherBlox Daily Observations layout. Learn more.

Left ArrowRight Arrow

40.92501, -98.34201

Hourly Observations for June 27, 2020

Temp ( °F °C ) Dew Point ( °F °C ) Humidity (%) Winds ( mph kmh ) Pressure ( in mb ) Visibility ( mi km ) Precip ( " mm )
12:53 am 00:53 Clear 72 22.2 66 18.9 82 82 NE 3 6 29.83 1010 10 16 0.00 0.00
1:53 am 01:53 Clear 72 22.2 66 18.9 82 82 Calm 29.81 1010 10 16 0.00 0.00
2:53 am 02:53 Cloudy 73 22.8 66 18.9 79 79 E 6 9 29.83 1010 10 16 0.00 0.00
3:53 am 03:53 Mostly Clear 73 22.8 66 18.9 79 79 SSE 8 13 29.84 1010 7 11 0.00 0.00
4:53 am 04:53 Mostly Cloudy with Light Rain 72 22.2 63 17.2 73 73 S 8 13 29.87 1011 10 16 0.00 0.00
5:53 am 05:53 Mostly Clear 68 20 64 17.8 87 87 S 3 6 29.85 1011 10 16 0.00 0.00
6:53 am 06:53 Sunny 68 20 64 17.8 87 87 Calm 29.80 1009 10 16 0.00 0.00
7:53 am 07:53 Sunny 69 20.6 65 18.3 87 87 NW 6 9 29.80 1009 10 16 0.00 0.00
8:53 am 08:53 Sunny 73 22.8 65 18.3 76 76 NNW 3 6 29.81 1010 10 16 0.00 0.00
9:53 am 09:53 Sunny 77 25 65 18.3 66 66 N 3 6 29.82 1010 10 16 0.00 0.00
10:53 am 10:53 Sunny 79 26.1 66 18.9 65 65 Calm 29.81 1009 10 16 0.00 0.00
11:48 am 11:48 Mostly Cloudy 81 27 66 19 62 62 SSE 16 26 29.76 1008 10 16 0.00 0.00
11:53 am 11:53 Mostly Cloudy 80 26.7 67 19.4 64 64 S 15 24 29.83 1010 10 16 0.00 0.00
12:53 pm 12:53 Mostly Cloudy 83 28.3 67 19.4 59 59 S 13 20 29.80 1009 10 16 0.00 0.00
1:03 pm 13:03 Partly Cloudy 84 28.9 67 19.4 57 57 S 9 15 29.72 1007 10 16 0.00 0.00
1:14 pm 13:14 Mostly Cloudy 82 27.8 66 18.9 58 58 SSW 8 13 29.73 1007 10 16 0.00 0.00
1:53 pm 13:53 Mostly Cloudy 85 29.4 66 18.9 53 53 SSW 8 13 29.79 1009 10 16 0.00 0.00
2:53 pm 14:53 Mostly Cloudy 84 28.9 65 18.3 53 53 SW 14 22 29.77 1008 10 16 0.00 0.00
3:53 pm 15:53 Mostly Sunny 88 31.1 66 18.9 48 48 S 12 19 29.75 1007 10 16 0.00 0.00
4:53 pm 16:53 Sunny 89 31.7 66 18.9 47 47 S 12 19 29.73 1007 10 16 0.00 0.00
5:53 pm 17:53 Sunny 88 31.1 66 18.9 48 48 SSE 13 20 29.72 1006 10 16 0.00 0.00
6:53 pm 18:53 Sunny 87 30.6 67 19.4 51 51 SSE 14 22 29.70 1006 10 16 0.00 0.00
7:53 pm 19:53 Sunny 84 28.9 68 20 59 59 SE 10 17 29.69 1006 10 16 0.00 0.00
8:53 pm 20:53 Sunny 80 26.7 68 20 67 67 SE 9 15 29.70 1006 10 16 0.00 0.00
9:53 pm 21:53 Clear 78 25.6 68 20 71 71 SSE 10 17 29.70 1006 10 16 0.00 0.00
10:53 pm 22:53 Clear 76 24.4 68 20 77 77 SE 10 17 29.69 1006 10 16 0.00 0.00
11:53 pm 23:53 Clear 76 24.4 68 20 77 77 SE 12 19 29.67 1005 10 16 0.00 0.00

Powered by AerisWeather